User: anonymous   Login
Location: Berkeley
(37.8716°N, 122.2727°W)
Time: 09:33:55
(UTC-07:00)
Language:

CAS-4A - Orbit

View from above orbital plane
View from above orbital plane
View from above satellite
View from above satellite

Ground track
Ground track

The orbit data is extracted from the following two-line orbital elements,

1 42761U 17034D   19289.12129472  .00000155  00000-0  22933-4 0  9996
2 42761  43.0193 294.2739 0013086 286.1278 159.1527 15.09731818128880
Epoch (UTC): 16 October 2019 02:54:39
Eccentricity: 0.0013086
inclination: 43.0193°
perigee height: 528 km
apogee height: 546 km
right ascension of ascending node: 294.2739°
argument of perigee: 286.1278°
revolutions per day: 15.09731818
mean anomaly at epoch: 159.1527°
orbit number at epoch: 12888

The dashed part of the orbit path shows where the satellite is in the earth's shadow,  

DLR